Weather History for Stevensville, MD

Change the Weather History Date:

Thursday, February 7, 2013

  Actual Average (KESN) Record (KESN)
Temperature  
Mean Temperature 34 °F -  
Max Temperature 39 °F 41 °F 57 °F (2009)
Min Temperature 28 °F 24 °F 13 °F (1977)
Degree Days  
Heating Degree Days 32    
Moisture  
Dew Point 25 °F    
Average Humidity 69    
Maximum Humidity 93    
Minimum Humidity 48    
Precipitation  
Precipitation 0.00 in - - ()
Sea Level Pressure  
Sea Level Pressure 30.38 in    
Wind  
Wind Speed 3 mph (East)    
Max Wind Speed 12 mph    
Max Gust Speed -    
Visibility 10 miles    
Events      
Averages and records for this station are not official NWS values.
T = Trace of Precipitation, MM = Missing Value Source: NWS Daily Summary

Daily Weather History Graph

Daily Weather History Graph

Search for Another Location

Airport:

Trip Planner

Search our weather history database for the weather conditions in past years. The results will help you decide how hot, cold, wet, or windy it might be!

Date:

Astronomy

Feb. 07, 2013 Rise Set
Actual Time 7:05 AM EST 5:33 PM EST
Civil Twilight 6:37 AM EST 6:01 PM EST
Nautical Twilight 6:06 AM EST 6:33 PM EST
Astronomical Twilight 5:35 AM EST 7:04 PM EST
Moon 4:42 AM EST (2/7) 2:56 PM EST (2/7)
Length of Visible Light 11h 23m
Length of Day
10h 28m
Waning Crescent, 9% of the Moon is Illuminated
Feb 7
Waning Crescent
Feb 10
New
Feb 17
First Quarter
Feb 25
Full
Mar 4
Last Quarter

Hourly Weather History & Observations

Time (EST) Temp. Windchill Dew Point Humidity Pressure Visibility Wind Dir Wind Speed Gust Speed Precip Events Conditions
12:19 AM 32.0 °F - 23.0 °F 69% 30.36 in 10.0 mi Calm Calm - N/A   Clear
12:39 AM 32.0 °F - 23.0 °F 69% 30.36 in 10.0 mi Calm Calm - N/A   Clear
12:59 AM 30.2 °F - 23.0 °F 75% 30.38 in 10.0 mi Calm Calm - N/A   Clear
1:19 AM 30.2 °F - 23.0 °F 75% 30.38 in 10.0 mi Calm Calm - N/A   Clear
1:39 AM 30.2 °F - 24.8 °F 80% 30.39 in 10.0 mi Calm Calm - N/A   Clear
1:59 AM 30.2 °F - 24.8 °F 80% 30.40 in 10.0 mi Calm Calm - N/A   Clear
2:19 AM 30.2 °F - 26.6 °F 86% 30.41 in 10.0 mi Calm Calm - N/A   Clear
2:39 AM 30.2 °F - 24.8 °F 80% 30.41 in 10.0 mi Calm Calm - N/A   Clear
2:59 AM 28.4 °F - 23.0 °F 80% 30.41 in 10.0 mi Calm Calm - N/A   Clear
3:19 AM 28.4 °F - 24.8 °F 86% 30.41 in 10.0 mi Calm Calm - N/A   Clear
3:39 AM 28.4 °F - 24.8 °F 86% 30.40 in 10.0 mi Calm Calm - N/A   Clear
3:59 AM 28.4 °F - 26.6 °F 93% 30.39 in 7.0 mi Calm Calm - N/A   Clear
4:19 AM 30.2 °F 26.7 °F 26.6 °F 86% 30.39 in 7.0 mi NNE 3.5 mph - N/A   Clear
4:39 AM 32.0 °F - 26.6 °F 80% 30.39 in 10.0 mi Calm Calm - N/A   Clear
4:59 AM 32.0 °F - 26.6 °F 80% 30.39 in 10.0 mi Calm Calm - N/A   Clear
5:20 AM 30.2 °F - 26.6 °F 86% 30.41 in 7.0 mi Calm Calm - N/A   Clear
5:40 AM 30.2 °F - 26.6 °F 86% 30.41 in 7.0 mi Calm Calm - N/A   Clear
6:00 AM 32.0 °F - 26.6 °F 80% 30.41 in 10.0 mi Calm Calm - N/A   Clear
6:20 AM 30.2 °F - 24.8 °F 80% 30.43 in 10.0 mi Calm Calm - N/A   Clear
6:40 AM 32.0 °F 28.7 °F 23.0 °F 69% 30.43 in 10.0 mi ENE 3.5 mph - N/A   Clear
7:00 AM 32.0 °F 28.7 °F 23.0 °F 69% 30.44 in 10.0 mi East 3.5 mph - N/A   Clear
7:20 AM 32.0 °F 27.5 °F 23.0 °F 69% 30.45 in 10.0 mi East 4.6 mph - N/A   Clear
7:40 AM 32.0 °F 28.7 °F 21.2 °F 64% 30.45 in 10.0 mi East 3.5 mph - N/A   Scattered Clouds
8:00 AM 32.0 °F 26.4 °F 23.0 °F 69% 30.45 in 10.0 mi East 5.8 mph - N/A   Mostly Cloudy
8:20 AM 32.0 °F 26.4 °F 23.0 °F 69% 30.46 in 10.0 mi East 5.8 mph - N/A   Scattered Clouds
8:40 AM 32.0 °F 25.6 °F 23.0 °F 69% 30.46 in 10.0 mi East 6.9 mph - N/A   Clear
9:00 AM 32.0 °F 24.8 °F 23.0 °F 69% 30.46 in 10.0 mi East 8.1 mph - N/A   Scattered Clouds
9:20 AM 33.8 °F 27.0 °F 21.2 °F 60% 30.46 in 10.0 mi ENE 8.1 mph - N/A   Mostly Cloudy
10:00 AM 33.8 °F 28.6 °F 21.2 °F 60% 30.47 in 10.0 mi East 5.8 mph - N/A   Clear
10:20 AM 33.8 °F 27.0 °F 21.2 °F 60% 30.46 in 10.0 mi East 8.1 mph - N/A   Clear
10:40 AM 35.6 °F 30.7 °F 21.2 °F 56% 30.46 in 10.0 mi East 5.8 mph - N/A   Clear
11:00 AM 35.6 °F 28.6 °F 21.2 °F 56% 30.46 in 10.0 mi ESE 9.2 mph - N/A   Clear
11:20 AM 35.6 °F 29.2 °F 21.2 °F 56% 30.45 in 10.0 mi East 8.1 mph - N/A   Clear
11:40 AM 35.6 °F 29.2 °F 21.2 °F 56% 30.44 in 10.0 mi East 8.1 mph - N/A   Clear
12:00 PM 37.4 °F 30.3 °F 21.2 °F 52% 30.43 in 10.0 mi East 10.4 mph - N/A   Clear
12:20 PM 37.4 °F 31.4 °F 21.2 °F 52% 30.41 in 10.0 mi East 8.1 mph - N/A   Clear
12:40 PM 37.4 °F 32.1 °F 21.2 °F 52% 30.41 in 10.0 mi East 6.9 mph - N/A   Clear
1:00 PM 37.4 °F 31.4 °F 21.2 °F 52% 30.40 in 10.0 mi East 8.1 mph - N/A   Clear
1:20 PM 37.4 °F 32.1 °F 19.4 °F 48% 30.40 in 10.0 mi ESE 6.9 mph - N/A   Mostly Cloudy
1:41 PM 37.4 °F 32.1 °F 19.4 °F 48% 30.39 in 10.0 mi East 6.9 mph - N/A   Overcast
2:01 PM 37.4 °F 30.8 °F 21.2 °F 52% 30.37 in 10.0 mi East 9.2 mph - N/A   Mostly Cloudy
2:21 PM 37.4 °F 31.4 °F 21.2 °F 52% 30.37 in 10.0 mi ESE 8.1 mph - N/A   Scattered Clouds
2:41 PM 39.2 °F 34.2 °F 21.2 °F 49% 30.36 in 10.0 mi ENE 6.9 mph - N/A   Clear
3:01 PM 39.2 °F 33.6 °F 21.2 °F 49% 30.35 in 10.0 mi East 8.1 mph - N/A   Clear
3:21 PM 39.2 °F 35.0 °F 23.0 °F 52% 30.34 in 10.0 mi East 5.8 mph - N/A   Clear
3:41 PM 39.2 °F 34.2 °F 23.0 °F 52% 30.33 in 10.0 mi East 6.9 mph - N/A   Clear
4:01 PM 39.2 °F 33.0 °F 24.8 °F 56% 30.33 in 10.0 mi East 9.2 mph - N/A   Clear
4:21 PM 39.2 °F 33.6 °F 26.6 °F 61% 30.32 in 10.0 mi East 8.1 mph - N/A   Clear
4:41 PM 39.2 °F 34.2 °F 26.6 °F 61% 30.32 in 10.0 mi East 6.9 mph - N/A   Clear
5:01 PM 37.4 °F 30.8 °F 28.4 °F 70% 30.32 in 10.0 mi ESE 9.2 mph - N/A   Clear
5:21 PM 37.4 °F 29.8 °F 28.4 °F 70% 30.32 in 10.0 mi ESE 11.5 mph - N/A   Clear
5:41 PM 37.4 °F 32.1 °F 28.4 °F 70% 30.34 in 10.0 mi ESE 6.9 mph - N/A   Clear
6:01 PM 37.4 °F 32.1 °F 28.4 °F 70% 30.34 in 10.0 mi East 6.9 mph - N/A   Clear
6:21 PM 37.4 °F 32.8 °F 28.4 °F 70% 30.35 in 10.0 mi East 5.8 mph - N/A   Clear
6:41 PM 37.4 °F 31.4 °F 28.4 °F 70% 30.34 in 10.0 mi East 8.1 mph - N/A   Clear
7:01 PM 37.4 °F 31.4 °F 28.4 °F 70% 30.34 in 10.0 mi East 8.1 mph - N/A   Clear
7:21 PM 37.4 °F 30.8 °F 28.4 °F 70% 30.33 in 10.0 mi East 9.2 mph - N/A   Clear
8:01 PM 37.4 °F 31.4 °F 30.2 °F 75% 30.33 in 10.0 mi East 8.1 mph - N/A   Mostly Cloudy
8:21 PM 35.6 °F 31.7 °F 30.2 °F 81% 30.32 in 10.0 mi ENE 4.6 mph - N/A   Overcast
8:41 PM 35.6 °F 30.7 °F 30.2 °F 81% 30.32 in 10.0 mi ENE 5.8 mph - N/A   Overcast
9:01 PM 35.6 °F 29.9 °F 30.2 °F 81% 30.31 in 10.0 mi ENE 6.9 mph - N/A   Overcast
9:21 PM 35.6 °F 28.6 °F 28.4 °F 75% 30.30 in 10.0 mi ENE 9.2 mph - N/A   Overcast
9:41 PM 35.6 °F 29.9 °F 28.4 °F 75% 30.30 in 10.0 mi NE 6.9 mph - N/A   Overcast
10:01 PM 35.6 °F 31.7 °F 28.4 °F 75% 30.29 in 10.0 mi ENE 4.6 mph - N/A   Overcast
10:22 PM 35.6 °F 29.9 °F 26.6 °F 70% 30.28 in 10.0 mi NE 6.9 mph - N/A   Overcast
10:42 PM 33.8 °F 27.0 °F 26.6 °F 75% 30.26 in 10.0 mi NE 8.1 mph - N/A   Scattered Clouds
11:02 PM 33.8 °F 28.6 °F 26.6 °F 75% 30.25 in 10.0 mi NE 5.8 mph - N/A   Scattered Clouds
11:22 PM 33.8 °F 28.6 °F 26.6 °F 75% 30.23 in 10.0 mi ENE 5.8 mph - N/A   Scattered Clouds